Location: Austin
(30.3000°N, 97.7500°W)
Time: 03:32:22
(UTC-05:00)

SJ-6B - Pass Details

Date: 18 March 2023
Orbit: 501 x 569 km, 97.5° (Epoch: 01 April)

Event Time Altitude Azimuth Distance (km) Brightness Sun altitude
Exits shadow 21:01:54 34° 139° (SE) 934 3.6 -18.2°
Maximum altitude 21:03:24 57° 77° (ENE) 657 2.8 -18.5°
Drops below altitude 10° 21:07:17 10° 358° (N) 1,825 5.6 -19.3°
Sets 21:09:25 0° 354° (N) 2,710 6.6 -19.8°
